Вернуться в каталог

STARLINK-5547

АктивенСвязьVLEO
NORAD 55352·PAYLOAD·🇺🇸 United States

Запущен Jan 26, 2023 с Cape Canaveral Space Force Station

Loading…

Ближайшие Пролёты (ближайшие 24 часа)

TLE

СвежийSource: CelesTrak SupGP

Эпоха: Sep 14, 2026, 14:52 UTC

1 55352C 23013X   26257.61993056  .00060741  00000+0  22002-2 0  2572
2 55352  43.0015 313.0300 0001284 277.0536 231.7431 15.27546258    17

Отслеживайте STARLINK-5547 в реальном времени с AllMySat

Download on the App Store